Date String (YYYY-MM-DD hh:mm:ss) UTC,Instrument flags,absolute air pressure of the measurement (hPa),sample flow rate (lpm),inlet stack bypass flow (lpm),air temperature of the measurement (°C),ambient temperature measured by the external sensor (°C),aerosol sample conditioner tube jacket temperature (°C),OPC LED temperature (°C),internal box temperature (°C),relative humidity of the measurement (%),span deviation,mass concentration of particles derived from Lorenz-Mie calculation of OPC scattering (μg/m³),mass concentration of particles derived from Lorenz-Mie calculation of OPC scattering (μg/m³),mass concentration of particles derived from Lorenz-Mie calculation of OPC scattering (μg/m³)
DateTimeUTC,F1_M11,P_M11,Q1_M11,Q2_M11,T1_M11,T2_M11,T3_M11,T4_M11,T5_M11,U1_M11,ZSPAN_M11,X2_M11,X0_M11,X1_M11
2023-11-08 07:00:00,SystemResetWarning,0824.6,5.01,000.00,027.7,026.7,000.0,036.3,029.1,14.8,0000.0,0002.20,0006.23,0001.16
2023-11-08 07:01:00,SystemResetWarning,0824.6,5.00,000.00,027.7,026.7,000.0,036.2,029.1,14.8,0000.0,0002.17,0006.07,0001.17
2023-11-08 07:02:00,SystemResetWarning,0824.7,5.00,000.00,027.7,026.7,000.0,036.2,029.1,14.8,0000.0,0002.15,0006.89,0001.17
2023-11-08 07:03:00,SystemResetWarning,0824.7,5.00,000.00,027.7,026.7,000.0,036.2,029.1,14.9,0000.0,0002.10,0007.20,0001.16
2023-11-08 07:04:00,SystemResetWarning,0824.7,5.00,000.00,027.7,026.7,000.0,036.2,029.1,14.9,0000.0,0002.06,0007.07,0001.17
2023-11-08 07:05:00,SystemResetWarning,0824.7,5.00,000.00,027.7,026.7,000.0,036.2,029.1,14.9,0000.0,0002.03,0007.25,0001.16
2023-11-08 07:06:00,SystemResetWarning,0824.7,5.00,000.00,027.7,026.7,000.0,036.2,029.1,14.9,0000.0,0002.04,0007.51,0001.17
2023-11-08 07:07:00,SystemResetWarning,0824.7,5.00,000.00,027.7,026.7,000.0,036.2,029.2,14.9,0000.0,0002.07,0006.54,0001.18
2023-11-08 07:08:00,SystemResetWarning,0824.7,4.99,000.00,027.7,026.7,000.0,036.2,029.2,14.9,0000.0,0002.02,0006.50,0001.16
2023-11-08 07:09:00,SystemResetWarning,0824.7,5.00,000.00,027.7,026.7,000.0,036.2,029.2,14.9,0000.0,0002.00,0006.44,0001.17
2023-11-08 07:10:00,SystemResetWarning,0824.7,5.00,000.00,027.7,026.7,000.0,036.2,029.1,14.9,0000.0,0001.99,0006.18,0001.17
2023-11-08 07:11:00,SystemResetWarning,0824.7,5.00,000.00,027.7,026.7,000.0,036.2,029.1,15.0,0000.0,0001.98,0005.97,0001.16
2023-11-08 07:12:00,SystemResetWarning,0824.7,4.99,000.00,027.7,026.7,000.0,036.1,029.1,15.0,0000.0,0002.04,0006.50,0001.16
2023-11-08 07:13:00,SystemResetWarning,0824.7,5.00,000.00,027.7,026.7,000.0,036.1,029.1,15.0,0000.0,0002.13,0007.01,0001.18
2023-11-08 07:14:00,SystemResetWarning,0824.7,5.01,000.00,027.7,026.7,000.0,036.1,029.1,15.0,0000.0,0002.16,0006.32,0001.18
2023-11-08 07:15:00,SystemResetWarning,0824.7,5.00,000.00,027.7,026.7,000.0,036.1,029.2,14.9,0000.0,0002.24,0006.97,0001.20
2023-11-08 07:16:00,SystemResetWarning,0824.7,5.00,000.00,027.7,026.7,000.0,036.1,029.1,14.9,0000.0,0002.22,0006.66,0001.21
2023-11-08 07:17:00,SystemResetWarning,0824.7,5.00,000.00,027.7,026.7,000.0,036.1,029.1,14.9,0000.0,0002.21,0006.25,0001.20
2023-11-08 07:18:00,SystemResetWarning,0824.7,4.99,000.00,027.7,026.7,000.0,036.1,029.2,14.9,0000.0,0002.14,0006.12,0001.18
2023-11-08 07:19:00,SystemResetWarning,0824.7,4.99,000.00,027.7,026.7,000.0,036.1,029.2,14.9,0000.0,0002.18,0006.01,0001.20
2023-11-08 07:20:00,SystemResetWarning,0824.7,5.00,000.00,027.7,026.7,000.0,036.1,029.2,14.9,0000.0,0002.17,0006.19,0001.19
2023-11-08 07:21:00,SystemResetWarning,0824.7,5.01,000.00,027.7,026.7,000.0,036.1,029.2,14.8,0000.0,0002.18,0007.16,0001.20
2023-11-08 07:22:00,SystemResetWarning,0824.7,5.01,000.00,027.7,026.7,000.0,036.1,029.2,14.8,0000.0,0002.21,0007.92,0001.20
2023-11-08 07:23:00,SystemResetWarning,0824.7,5.00,000.00,027.7,026.7,000.0,036.1,029.1,14.8,0000.0,0002.21,0007.79,0001.21
2023-11-08 07:24:00,SystemResetWarning,0824.7,4.99,000.00,027.7,026.7,000.0,036.1,029.1,14.9,0000.0,0002.15,0007.26,0001.21
2023-11-08 07:25:00,SystemResetWarning,0824.7,4.99,000.00,027.7,026.7,000.0,036.1,029.1,14.9,0000.0,0002.09,0007.11,0001.21
2023-11-08 07:26:00,SystemResetWarning,0824.7,5.01,000.00,027.7,026.7,000.0,036.1,029.2,15.2,0000.0,0002.04,0006.65,0001.20
2023-11-08 07:27:00,SystemResetWarning,0824.7,5.01,000.00,027.7,026.7,000.0,036.1,029.1,15.5,0000.0,0002.09,0006.76,0001.20
2023-11-08 07:28:00,SystemResetWarning,0824.7,5.00,000.00,027.7,026.7,000.0,036.1,029.1,15.3,0000.0,0002.13,0007.13,0001.21
2023-11-08 07:29:00,SystemResetWarning,0824.7,5.00,000.00,027.7,026.7,000.0,036.1,029.1,15.2,0000.0,0002.23,0007.66,0001.29
2023-11-08 07:30:00,SystemResetWarning,0824.7,5.00,000.00,027.7,026.7,000.0,036.1,029.1,15.1,0000.0,0002.26,0007.86,0001.34
2023-11-08 07:31:00,SystemResetWarning,0824.7,5.00,000.00,027.7,026.7,000.0,036.1,029.1,15.1,0000.0,0002.31,0007.81,0001.38
2023-11-08 07:32:00,SystemResetWarning,0824.7,5.00,000.00,027.7,026.7,000.0,036.1,029.1,15.3,0000.0,0002.41,0007.67,0001.41
2023-11-08 07:33:00,SystemResetWarning,0824.7,5.00,000.00,027.7,026.7,000.0,036.1,029.1,15.5,0000.0,0002.52,0007.35,0001.42
2023-11-08 07:34:00,SystemResetWarning,0824.7,5.00,000.00,027.7,026.7,000.0,036.1,029.1,15.6,0000.0,0002.57,0007.26,0001.44
2023-11-08 07:35:00,SystemResetWarning,0824.7,5.00,000.00,027.7,026.7,000.0,036.1,029.1,15.6,0000.0,0002.67,0007.72,0001.52
2023-11-08 07:36:00,SystemResetWarning,0824.7,5.00,000.00,027.7,026.7,000.0,036.1,029.2,15.7,0000.0,0002.86,0008.15,0001.64
2023-11-08 07:37:00,SystemResetWarning,0824.7,5.00,000.00,027.7,026.7,000.0,036.1,029.2,15.6,0000.0,0003.05,0008.64,0001.74
2023-11-08 07:38:00,SystemResetWarning,0824.7,5.00,000.00,027.7,026.8,000.0,036.1,029.2,15.6,0000.0,0003.17,0008.97,0001.86
2023-11-08 07:39:00,SystemResetWarning,0824.7,5.00,000.00,027.7,026.8,000.0,036.1,029.2,15.6,0000.0,0003.26,0009.02,0001.98
2023-11-08 07:40:00,SystemResetWarning,0824.7,5.00,000.00,027.7,026.8,000.0,036.1,029.2,15.5,0000.0,0003.32,0009.25,0002.04
2023-11-08 07:41:00,SystemResetWarning,0824.7,5.00,000.00,027.7,026.8,000.0,036.1,029.2,15.5,0000.0,0003.38,0009.32,0002.08
2023-11-08 07:42:00,SystemResetWarning,0824.7,4.99,000.00,027.7,026.8,000.0,036.1,029.2,15.4,0000.0,0003.45,0009.86,0002.15
2023-11-08 07:43:00,SystemResetWarning,0824.8,5.00,000.00,027.7,026.8,000.0,036.1,029.2,15.3,0000.0,0003.48,0009.82,0002.22
2023-11-08 07:44:00,SystemResetWarning,0824.8,4.98,000.00,027.8,026.8,000.0,036.1,029.2,15.1,0000.0,0003.48,0009.82,0002.28
2023-11-08 07:45:00,SystemResetWarning,0824.7,4.99,000.00,027.8,026.8,000.0,036.1,029.2,15.2,0000.0,0003.50,0012.06,0002.32
2023-11-08 07:46:00,SystemResetWarning,0824.7,5.01,000.00,027.8,026.8,000.0,036.1,029.2,15.3,0000.0,0003.52,0012.78,0002.33
2023-11-08 07:47:00,SystemResetWarning,0824.8,5.01,000.00,027.8,026.8,000.0,036.1,029.2,15.3,0000.0,0003.51,0012.56,0002.27
2023-11-08 07:48:00,SystemResetWarning,0824.8,4.99,000.00,027.8,026.8,000.0,036.2,029.2,15.3,0000.0,0003.51,0012.38,0002.25
2023-11-08 07:49:00,SystemResetWarning,0824.8,4.99,000.00,027.8,026.8,000.0,036.2,029.2,15.3,0000.0,0003.44,0011.99,0002.20
2023-11-08 07:50:00,SystemResetWarning,0824.8,5.00,000.00,027.8,026.8,000.0,036.2,029.2,15.2,0000.0,0003.39,0012.26,0002.14
2023-11-08 07:51:00,SystemResetWarning,0824.8,5.01,000.00,027.8,026.8,000.0,036.2,029.3,15.3,0000.0,0003.35,0012.07,0002.09
2023-11-08 07:52:00,SystemResetWarning,0824.8,5.00,000.00,027.8,026.8,000.0,036.2,029.3,15.2,0000.0,0003.28,0011.88,0002.02
2023-11-08 07:53:00,SystemResetWarning,0824.7,5.00,000.00,027.8,026.8,000.0,036.2,029.2,15.1,0000.0,0003.27,0012.34,0001.97
2023-11-08 07:54:00,SystemResetWarning,0824.8,5.00,000.00,027.8,026.8,000.0,036.2,029.2,15.0,0000.0,0003.28,0012.49,0001.94
2023-11-08 07:55:00,SystemResetWarning,0824.8,5.00,000.00,027.8,026.8,000.0,036.2,029.2,14.9,0000.0,0003.27,0012.21,0001.94
2023-11-08 07:56:00,SystemResetWarning,0824.8,4.99,000.00,027.8,026.8,000.0,036.2,029.2,14.9,0000.0,0003.26,0010.84,0001.95
2023-11-08 07:57:00,SystemResetWarning,0824.8,5.00,000.00,027.8,026.8,000.0,036.2,029.2,15.0,0000.0,0003.29,0010.58,0001.96
2023-11-08 07:58:00,SystemResetWarning,0824.7,5.01,000.00,027.8,026.8,000.0,036.2,029.2,14.9,0000.0,0003.30,0010.69,0001.94
2023-11-08 07:59:00,SystemResetWarning,0824.7,5.00,000.00,027.8,026.8,000.0,036.2,029.2,14.9,0000.0,0003.31,0010.75,0001.93
